{"data":{"norad_id":48235,"epoch":"2026-05-25T02:41:27.034080Z","epoch_age_seconds":58569,"freshness":"FRESH","line1":"1 48235U 21031AB  26145.11211845  .00000096  00000+0  22558-3 0  9999","line2":"2 48235  87.8955 294.3006 0001703  93.9658 266.1666 13.14501414245245","mean_motion":13.14501414,"eccentricity":0.0001703,"inclination_deg":87.8955,"raan_deg":294.3006,"arg_perigee_deg":93.9658,"mean_anomaly_deg":266.1666,"bstar":0.00022558,"rev_number":24524,"period_min":109.54723856995,"perigee_km":1204.5041418624,"apogee_km":1207.0872293351,"semimajor_km":7583.9326855987,"source":"CELESTRAK","updated_at":"2026-05-25T13:38:22.438573Z"}}